Location: Unspecified
(0.0000°N, 0.0000°E)
Time: 02:38:02
(UTC+00:00)

CUTE-I - Visible Passes

Search period start: 27 May 2019 00:00
Search period end: 06 June 2019 00:00
Orbit: 810 x 826 km, 98.7° (Epoch: 26 May)

Date Brightness Start Highest point End Pass type
(mag) Time Alt. Az. Time Alt. Az. Time Alt. Az.
27 May ? 18:27:21 10° S 18:32:23 42° WSW 18:37:24 10° NNW visible
28 May ? 05:26:53 10° NE 05:31:43 36° ESE 05:36:34 10° SSE visible
29 May ? 05:06:35 10° ENE 05:10:25 20° ESE 05:14:15 10° SSE visible
30 May ? 04:47:57 10° E 04:49:07 11° ESE 04:50:16 10° ESE visible
30 May ? 19:04:58 10° SW 19:08:09 16° WSW 19:11:18 10° WNW visible
31 May ? 18:42:18 10° SSW 18:46:51 29° WSW 18:51:22 10° NW visible
01 Jun ? 18:20:21 10° S 18:25:31 51° WSW 18:30:40 10° NNW visible
02 Jun ? 05:20:16 10° NE 05:24:51 30° ESE 05:29:29 10° SSE visible
03 Jun ? 05:00:14 10° ENE 05:03:33 17° ESE 05:06:53 10° SE visible
03 Jun ? 19:22:13 10° WSW 19:22:35 10° WSW 19:22:57 10° W visible
04 Jun ? 18:57:35 10° SSW 19:01:17 19° WSW 19:05:00 10° WNW visible
05 Jun ? 18:35:12 10° SSW 18:39:59 34° WSW 18:44:45 10° NW visible
